User: anonymous   Login
Location: Unspecified
(0.0000°N, 0.0000°E)
Time: 19:39:20
(UTC+02:00)
Language:

Iridium 33 - Orbit

View from above orbital plane
View from above orbital plane
View from above satellite
View from above satellite

Ground track
Ground track

The orbit data is extracted from the following two-line orbital elements,

1 24946U 97051C   17267.43933026  .00000081  00000-0  22154-4 0  9997
2 24946  86.3856 245.1644 0005735 284.8133  75.2427 14.33568329 48258
Epoch (UTC): 24 September 2017 10:32:38
Eccentricity: 0.0005735
inclination: 86.3856°
perigee height: 776 km
apogee height: 784 km
right ascension of ascending node: 245.1644°
argument of perigee: 284.8133°
revolutions per day: 14.33568329
mean anomaly at epoch: 75.2427°
orbit number at epoch: 4825

The dashed part of the orbit path shows where the satellite is in the earth's shadow,  

DLR